This demonstration page uses our WeatherBlox Daily Observations layout. Learn more.

Left ArrowRight Arrow

Hourly Observations for August 20, 2022

Temp ( °F °C ) Dew Point ( °F °C ) Humidity (%) Winds ( mph kmh ) Pressure ( in mb ) Visibility ( mi km ) Precip ( " mm )
12:54 am 00:54 Partly Cloudy 69 20.6 61 16.1 75 75 WSW 6 9 29.90 1013 10 16 0.00 0.00
1:54 am 01:54 Clear 67 19.4 60 15.6 79 79 W 5 7 29.90 1013 10 16 0.00 0.00
2:54 am 02:54 Clear 65 18.3 59 15 81 81 Calm 29.91 1013 10 16 0.00 0.00
3:54 am 03:54 Clear 62 16.7 58 14.4 86 86 N 3 6 29.91 1013 10 16 0.00 0.00
4:54 am 04:54 Clear 67 19.4 59 15 76 76 NW 10 17 29.91 1013 10 16 0.00 0.00
5:54 am 05:54 Clear 65 18.3 59 15 81 81 NW 8 13 29.93 1014 10 16 0.00 0.00
6:54 am 06:54 Sunny 64 17.8 59 15 84 84 NW 7 11 29.96 1015 10 16 0.00 0.00
7:54 am 07:54 Sunny 66 18.9 60 15.6 81 81 NW 8 13 29.99 1016 10 16 0.00 0.00
8:24 am 08:24 Mostly Cloudy 67 19.4 60 15.6 79 79 NW 9 15 29.99 1016 10 16 0.00 0.00
8:54 am 08:54 Mostly Cloudy 69 20.6 61 16.1 75 75 NNW 12 19 29.99 1016 10 16 0.00 0.00
9:01 am 09:01 Partly Cloudy 70 21.1 61 16.1 73 73 NNW 12 19 29.98 1015 10 16 0.00 0.00
9:36 am 09:36 Mostly Cloudy 70 21.1 60 15.6 71 71 N 13 20 30.00 1016 10 16 0.00 0.00
9:54 am 09:54 Cloudy 73 22.8 60 15.6 64 64 N 10 17 30.01 1016 10 16 0.00 0.00
10:54 am 10:54 Mostly Cloudy 72 22.2 59 15 64 64 N 13 20 30.03 1017 10 16 0.00 0.00
11:54 am 11:54 Mostly Cloudy 76 24.4 59 15 56 56 N 14 22 30.04 1017 10 16 0.00 0.00
12:54 pm 12:54 Mostly Cloudy 77 25 59 15 54 54 N 15 24 30.03 1017 10 16 0.00 0.00
1:54 pm 13:54 Mostly Sunny 80 26.7 59 15 49 49 NNW 12 19 30.01 1016 10 16 0.00 0.00
2:54 pm 14:54 Partly Cloudy 81 27.2 58 14.4 45 45 N 12 19 30.01 1016 10 16 0.00 0.00
3:54 pm 15:54 Partly Cloudy 82 27.8 59 15 46 46 N 12 19 30.00 1016 10 16 0.00 0.00
4:54 pm 16:54 Mostly Sunny 84 28.9 59 15 43 43 NNE 14 22 29.98 1015 10 16 0.00 0.00
5:54 pm 17:54 Sunny 83 28.3 58 14.4 43 43 N 8 13 29.97 1015 10 16 0.00 0.00
6:54 pm 18:54 Sunny 82 27.8 58 14.4 44 44 N 10 17 29.99 1016 10 16 0.00 0.00
7:54 pm 19:54 Sunny 78 25.6 59 15 52 52 NNE 6 9 30.00 1016 10 16 0.00 0.00
8:54 pm 20:54 Clear 72 22.2 59 15 64 64 N 5 7 30.01 1016 10 16 0.00 0.00
9:54 pm 21:54 Clear 72 22.2 60 15.6 66 66 Calm 30.03 1017 10 16 0.00 0.00
10:54 pm 22:54 Clear 68 20 59 15 73 73 NNW 5 7 30.04 1017 10 16 0.00 0.00
11:54 pm 23:54 Clear 67 19.4 60 15.6 79 79 NNW 6 9 30.05 1018 10 16 0.00 0.00

Powered by AerisWeather